Location: Tucson
(32.2217°N, 110.9265°W)
Time: 16:22:50
(UTC-07:00)

Transit 2A Rocket - Pass Details

Date: 09 August 2022
Orbit: 593 x 908 km, 66.7° (Epoch: 26 September)

Event Time Altitude Azimuth Distance (km) Brightness Sun altitude
Rises 04:10:49 0° 344° (NNW) 2,872 8.2 -18.5°
Reaches altitude 10° 04:13:09 10° 352° (N) 1,992 7.5 -18.1°
Maximum altitude 04:17:19 37° 61° (ENE) 1,006 6.3 -17.4°
Drops below altitude 10° 04:21:46 10° 129° (SE) 2,130 7.5 -16.6°
Sets 04:24:20 0° 137° (SE) 3,098 8.3 -16.1°
